EWG2WZ LEIB-EDDS

Flight info

Callsign EWG2WZ
Flight time N/A
Altitude 34000
Route KABRE DCT ELTAN N853 LUMAS DCT UNANA DCT STP DCT RAPED DCT PIGOS DCT EKSID DCT NOSTA DCT NOPMU DCT SRN DCT PEPAG DCT ABESI N851 ROMIR T125 REUTL REUTL5A
Aircraft A321/M-SDE3FGHIRWY/LB1

Departure

Time 2026-05-01 12:41
Airport Ibiza Airport (LEIB)

Arrival

Time N/A
Airport Stuttgart Airport (EDDS)
Time Latitude Longitude Altitude Speed Heading
2026-05-01 12:27 38.87563 1.36918 8 ft 0 kts 332°
2026-05-01 12:31 38.87546 1.36929 10 ft 4 kts 332°
2026-05-01 12:32 38.87526 1.36943 10 ft 2 kts 332°
2026-05-01 12:32 38.87515 1.36987 8 ft 4 kts 242°
2026-05-01 12:32 38.87521 1.37002 10 ft 0 kts 242°
2026-05-01 12:35 38.87518 1.36994 8 ft 2 kts 242°
2026-05-01 12:35 38.87511 1.36978 9 ft 3 kts 242°
2026-05-01 12:35 38.87501 1.36953 8 ft 4 kts 242°
2026-05-01 12:35 38.87487 1.36920 8 ft 5 kts 242°
2026-05-01 12:36 38.87471 1.36880 8 ft 6 kts 242°
2026-05-01 12:36 38.87451 1.36833 8 ft 6 kts 242°
2026-05-01 12:36 38.87420 1.36794 8 ft 7 kts 194°
2026-05-01 12:36 38.87376 1.36815 10 ft 7 kts 153°
2026-05-01 12:37 38.87328 1.36846 8 ft 8 kts 153°
2026-05-01 12:37 38.87278 1.36846 8 ft 8 kts 231°
2026-05-01 12:37 38.87251 1.36780 8 ft 9 kts 243°
2026-05-01 12:37 38.87221 1.36707 10 ft 10 kts 243°
2026-05-01 12:38 38.87189 1.36627 9 ft 11 kts 243°
2026-05-01 12:38 38.87154 1.36539 8 ft 12 kts 242°
2026-05-01 12:38 38.87114 1.36446 8 ft 12 kts 242°
2026-05-01 12:38 38.87073 1.36345 8 ft 13 kts 242°
2026-05-01 12:39 38.87029 1.36239 8 ft 14 kts 242°
2026-05-01 12:39 38.86982 1.36126 8 ft 15 kts 242°
2026-05-01 12:39 38.86933 1.36008 10 ft 15 kts 242°
2026-05-01 12:39 38.86886 1.35893 8 ft 12 kts 242°
2026-05-01 12:40 38.86839 1.35819 8 ft 11 kts 196°
2026-05-01 12:40 38.86766 1.35857 6 ft 13 kts 150°
2026-05-01 12:40 38.86717 1.35932 6 ft 10 kts 84°
2026-05-01 12:40 38.86794 1.36127 5 ft 55 kts 62°
2026-05-01 12:41 38.87084 1.36828 7 ft 121 kts 62°
2026-05-01 12:41 38.87561 1.37978 126 ft 159 kts 62°
2026-05-01 12:41 38.88061 1.39195 890 ft 153 kts 63°
2026-05-01 12:41 38.88413 1.40502 1425 ft 160 kts 77°
2026-05-01 12:42 38.88650 1.41930 1894 ft 166 kts 76°
2026-05-01 12:42 38.88910 1.43405 2353 ft 172 kts 76°
2026-05-01 12:42 38.89181 1.44929 2799 ft 178 kts 75°
2026-05-01 12:42 38.89466 1.46518 3204 ft 189 kts 75°
2026-05-01 12:43 38.89772 1.48209 3574 ft 200 kts 75°
2026-05-01 12:43 38.90090 1.49972 3929 ft 210 kts 75°
2026-05-01 12:43 38.90430 1.51845 4287 ft 220 kts 76°
2026-05-01 12:43 38.90767 1.53839 4636 ft 232 kts 81°
2026-05-01 12:44 38.90714 1.55936 4985 ft 247 kts 94°
2026-05-01 12:44 38.90501 1.58201 5337 ft 264 kts 96°
2026-05-01 12:44 38.90034 1.63030 6458 ft 278 kts 97°
2026-05-01 12:45 38.89101 1.67878 7701 ft 285 kts 116°
2026-05-01 12:45 38.88249 1.70189 8334 ft 288 kts 116°
2026-05-01 12:45 38.87395 1.72529 8992 ft 289 kts 115°
2026-05-01 12:46 38.86545 1.74868 9704 ft 290 kts 115°
2026-05-01 12:46 38.85693 1.77218 10338 ft 292 kts 115°
2026-05-01 12:46 38.84808 1.79656 10500 ft 312 kts 115°
2026-05-01 12:46 38.83864 1.82261 10619 ft 331 kts 115°
2026-05-01 12:47 38.82869 1.85009 10813 ft 347 kts 115°
2026-05-01 12:47 38.81878 1.87861 11247 ft 353 kts 110°
2026-05-01 12:47 38.81293 1.90931 11744 ft 357 kts 97°
2026-05-01 12:47 38.81274 1.94128 12301 ft 361 kts 84°
2026-05-01 12:48 38.81837 1.97267 12863 ft 364 kts 70°
2026-05-01 12:48 38.82829 2.00270 13403 ft 367 kts 67°
2026-05-01 12:48 38.83851 2.03282 13960 ft 370 kts 67°
2026-05-01 12:48 38.84874 2.06321 14447 ft 372 kts 68°
2026-05-01 12:49 38.85899 2.09385 14921 ft 375 kts 68°
2026-05-01 12:49 38.86931 2.12478 15409 ft 378 kts 68°
2026-05-01 12:49 38.87969 2.15587 15848 ft 381 kts 67°
2026-05-01 12:49 38.89019 2.18730 16299 ft 385 kts 67°
2026-05-01 12:50 38.90075 2.21896 16762 ft 387 kts 68°
2026-05-01 12:50 38.91135 2.25082 17238 ft 390 kts 68°
2026-05-01 12:50 38.92203 2.28292 17711 ft 392 kts 68°